K0EG-WX Weather Reports


time (UTC)temp
C
wind
direction
speed
KPH
gust
KPH
rain 1hr
cm
rain 24hr
cm
rain mn
cm
humidity
%
barometer
mb
20260510220017 23 30 1.6 6.4 0.00 0.20 0.03 33 1020.7
20260510215016 23 5 3.2 6.4 0.00 0.20 0.03 34 1020.6
20260510214017 23 48 0.0 4.8 0.00 0.20 0.03 38 1020.7
20260510213018 23 36 1.6 8.0 0.00 0.20 0.03 33 1020.7
20260510212016 23 14 1.6 9.7 0.00 0.20 0.03 38 1020.8
20260510211037 23 1 1.6 8.0 0.00 0.20 0.03 33 1020.8
20260510210037 23 337 0.0 4.8 0.00 0.20 0.03 37 1021.0
20260510205017 23 92 1.6 4.8 0.00 0.20 0.03 34 1021.1
20260510204017 23 177 1.6 3.2 0.00 0.20 0.03 33 1021.1
20260510203017 25 31 1.6 6.4 0.00 0.20 0.03 33 1021.0
20260510202017 25 3 3.2 8.0 0.00 0.20 0.03 28 1020.9
20260510201037 25 2 1.6 6.4 0.00 0.20 0.03 31 1021.0
20260510200016 25 11 1.6 6.4 0.00 0.20 0.03 32 1020.9
20260510195017 25 352 3.2 16.1 0.00 0.20 0.03 29 1021.1
20260510194018 25 358 4.8 9.7 0.00 0.20 0.03 30 1021.0
20260510193017 24 13 3.2 6.4 0.00 0.20 0.03 33 1021.0
20260510192017 23 10 1.6 8.0 0.00 0.20 0.03 35 1021.1
20260510191017 21 347 3.2 8.0 0.00 0.20 0.03 37 1021.1
20260510190017 21 345 3.2 8.0 0.00 0.20 0.03 39 1021.0
20260510185022 21 356 1.6 6.4 0.00 0.20 0.03 45 1020.9
20260510184017 22 351 1.6 8.0 0.00 0.20 0.03 38 1020.9
20260510183042 22 20 1.6 8.0 0.00 0.20 0.03 42 1020.8
20260510182017 22 352 4.8 12.9 0.00 0.20 0.03 35 1020.7
20260510181017 21 358 3.2 9.7 0.00 0.20 0.03 43 1020.7
20260510180017 21 347 3.2 8.0 0.00 0.20 0.03 43 1020.8
20260510175057 20 343 1.6 8.0 0.00 0.20 0.03 46 1020.9
20260510174017 20 346 3.2 6.4 0.00 0.20 0.03 50 1021.1
20260510173017 19 345 3.2 4.8 0.00 0.20 0.03 49 1021.1
20260510172017 19 19 1.6 11.3 0.00 0.20 0.03 48 1021.2
20260510171015 20 25 1.6 6.4 0.00 0.20 0.03 48 1021.2
20260510170017 20 28 1.6 8.0 0.00 0.20 0.03 48 1021.2
20260510165017 18 2 1.6 8.0 0.00 0.20 0.03 51 1021.3
20260510164017 17 13 1.6 8.0 0.00 0.20 0.03 51 1021.3
20260510163017 18 345 3.2 6.4 0.00 0.20 0.03 53 1021.2
20260510162017 18 19 1.6 4.8 0.00 0.20 0.03 56 1021.2
20260510161017 18 349 1.6 9.7 0.00 0.20 0.03 51 1021.3
20260510160017 19 2 3.2 12.9 0.00 0.20 0.03 48 1021.5
20260510155015 18 4 3.2 8.0 0.00 0.20 0.03 54 1021.5
20260510154017 17 357 3.2 6.4 0.00 0.20 0.03 59 1021.4
20260510153017 16 353 1.6 8.0 0.00 0.20 0.03 63 1021.2
20260510152016 17 6 1.6 8.0 0.00 0.20 0.03 62 1021.0
20260510151037 17 350 3.2 6.4 0.00 0.20 0.03 61 1020.7
20260510150017 17 350 3.2 14.5 0.00 0.20 0.03 53 1020.6
20260510145017 18 346 3.2 9.7 0.00 0.20 0.03 50 1020.5
20260510144057 18 13 1.6 6.4 0.00 0.20 0.03 56 1020.5
20260510143017 17 351 1.6 8.0 0.00 0.20 0.03 55 1020.3
20260510142036 17 345 3.2 9.7 0.00 0.20 0.03 54 1020.2
20260510141016 17 349 3.2 9.7 0.00 0.20 0.03 56 1019.9
20260510140017 16 343 3.2 9.7 0.00 0.20 0.03 60 1019.5
20260510135017 15 348 3.2 12.9 0.00 0.20 0.03 62 1019.6
20260510134017 15 341 1.6 8.0 0.00 0.20 0.03 67 1019.7
20260510133017 14 347 1.6 6.4 0.00 0.20 0.03 73 1019.6
20260510132037 13 349 1.6 14.5 0.00 0.20 0.03 74 1019.6
20260510131017 12 349 3.2 8.0 0.00 0.20 0.03 77 1019.5
20260510130016 12 352 1.6 6.4 0.00 0.20 0.03 79 1019.5
20260510125037 11 346 1.6 8.0 0.00 0.20 0.03 79 1019.3
20260510124017 11 346 1.6 8.0 0.00 0.20 0.03 80 1019.2
20260510123016 11 359 1.6 6.4 0.00 0.20 0.03 81 1018.9
20260510122017 11 345 1.6 4.8 0.00 0.20 0.03 82 1018.7
20260510121017 11 345 3.2 6.4 0.00 0.20 0.03 83 1018.6
20260510120016 11 348 3.2 4.8 0.00 0.20 0.03 84 1018.5
20260510115021 11 350 1.6 4.8 0.00 0.20 0.03 84 1018.3
20260510114137 11 343 1.6 6.4 0.00 0.20 0.03 86 1018.1
20260510113016 11 347 1.6 4.8 0.00 0.20 0.03 86 1017.8
20260510112037 11 353 1.6 6.4 0.00 0.20 0.03 87 1017.5
20260510111016 11 351 3.2 6.4 0.00 0.20 0.03 88 1017.4
20260510110016 11 344 1.6 3.2 0.00 0.20 0.03 89 1017.2
20260510105021 11 334 1.6 4.8 0.00 0.20 0.03 89 1017.0
20260510104017 11 352 1.6 4.8 0.00 0.20 0.03 89 1016.7
20260510103016 11 354 1.6 4.8 0.00 0.20 0.03 89 1016.7
20260510102016 11 352 1.6 6.4 0.00 0.20 0.03 89 1016.5
20260510101016 12 334 1.6 4.8 0.00 0.20 0.03 90 1016.3
20260510100017 12 353 1.6 6.4 0.00 0.20 0.03 90 1016.2
20260510095057 12 355 1.6 4.8 0.00 0.20 0.03 90 1016.1
20260510094016 12 346 1.6 4.8 0.00 0.20 0.03 90 1016.1
20260510093021 12 350 1.6 3.2 0.00 0.20 0.03 90 1016.0
20260510092016 12 0.0 0.0 0.00 0.20 0.03 90 1016.0
20260510091017 12 0.0 0.0 0.00 0.20 0.03 90 1015.9
20260510090016 12 0.0 0.0 0.00 0.20 0.03 90 1015.7
20260510085016 13 0.0 0.0 0.00 0.20 0.03 90 1015.5
20260510084016 13 350 0.0 1.6 0.00 0.20 0.03 90 1015.3
20260510083016 13 350 0.0 1.6 0.00 0.20 0.03 90 1015.1
20260510082036 13 351 0.0 3.2 0.00 0.20 0.03 89 1014.9
20260510081016 13 0.0 0.0 0.00 0.20 0.03 89 1014.7
20260510080016 13 0.0 0.0 0.00 0.20 0.03 89 1014.7
20260510075016 13 352 0.0 1.6 0.00 0.23 0.03 89 1014.4
20260510074016 13 355 0.0 4.8 0.00 0.23 0.03 89 1014.3
20260510073016 14 355 0.0 3.2 0.00 0.23 0.03 89 1014.3
20260510072016 14 345 1.6 8.0 0.00 0.23 0.03 89 1014.2
20260510071036 14 352 1.6 6.4 0.00 0.23 0.03 89 1014.2
20260510070016 14 351 1.6 4.8 0.00 0.23 0.03 90 1014.2
20260510065016 14 347 1.6 4.8 0.00 0.23 0.03 89 1014.2
20260510064016 15 346 1.6 8.0 0.00 0.23 0.03 89 1014.3
20260510063036 15 347 3.2 4.8 0.00 0.23 0.03 89 1014.2
20260510062016 15 356 1.6 4.8 0.00 0.23 0.03 89 1013.9
20260510061016 15 0 1.6 8.0 0.03 0.23 0.03 89 1014.0
20260510060016 15 351 1.6 8.0 0.03 0.23 0.03 89 1014.2
20260510055016 15 357 3.2 9.7 0.03 0.23 0.03 89 1014.0
20260510054016 15 343 4.8 8.0 0.03 0.23 0.03 89 1014.0
20260510053036 15 341 3.2 8.0 0.03 0.23 0.03 89 1013.1
20260510052016 15 344 1.6 6.4 0.08 0.23 0.03 89 1013.1
20260510051016 15 2 0.0 4.8 0.08 0.20 0.00 89 1013.0
20260510050016 15 345 3.2 6.4 0.10 0.20 0.00 89 1013.4
20260510045016 15 192 3.2 6.4 0.10 0.20 0.20 89 1012.6
20260510044016 15 192 4.8 6.4 0.10 0.20 0.20 88 1012.4
20260510043016 15 176 1.6 6.4 0.10 0.20 0.20 88 1013.0
20260510042016 15 37 0.0 1.6 0.08 0.15 0.15 87 1013.1
20260510041016 15 2 1.6 4.8 0.08 0.13 0.13 86 1013.6
20260510040016 16 349 1.6 6.4 0.08 0.10 0.10 85 1013.5
20260510035016 16 330 3.2 9.7 0.08 0.10 0.10 85 1012.8
20260510034016 16 352 3.2 12.9 0.08 0.10 0.10 83 1013.0
20260510033016 16 356 3.2 11.3 0.08 0.13 0.10 82 1013.2
20260510032016 17 351 3.2 12.9 0.05 0.10 0.08 81 1013.2
20260510031021 17 353 3.2 12.9 0.03 0.08 0.05 78 1013.2
20260510030021 18 359 6.4 19.3 0.00 0.08 0.03 72 1013.0
20260510025016 18 331 6.4 17.7 0.00 0.10 0.03 67 1012.4
20260510024016 18 0.0 0.0 0.00 0.15 0.03 64 1010.9
20260510023036 18 0.0 0.0 0.00 0.23 0.03 62 1010.6
20260510022056 18 0.0 0.0 0.00 0.28 0.03 62 1010.5
20260510021016 18 0.0 0.0 0.00 0.38 0.03 61 1010.3
20260510020016 19 0.0 0.0 0.00 0.46 0.03 60 1010.2
20260510015036 19 0.0 0.0 0.00 0.53 0.03 59 1010.0
20260510014036 20 0.0 0.0 0.00 0.64 0.03 58 1009.8
20260510013016 20 0.0 0.0 0.00 0.69 0.03 55 1009.6
20260510012036 20 0.0 0.0 0.00 0.71 0.03 54 1009.6
20260510011016 21 0.0 0.0 0.00 0.71 0.03 54 1009.7
20260510010016 22 0.0 0.0 0.00 0.71 0.03 53 1009.6
20260510005036 22 0.0 0.0 0.00 0.71 0.03 52 1009.5
20260510004036 23 0.0 0.0 0.00 0.71 0.03 50 1009.4
20260510003016 23 0.0 0.0 0.00 0.71 0.03 49 1009.3
20260510002016 23 0.0 0.0 0.00 0.71 0.03 47 1009.3
20260510001016 23 0.0 1.6 0.00 0.74 0.03 45 1009.2
20260510000016 24 166 0.0 1.6 0.00 0.74 0.03 43 1009.2
20260509235035 25 168 0.0 1.6 0.00 0.74 0.03 41 1009.2
20260509234016 25 181 0.0 1.6 0.00 0.74 0.03 40 1009.2
20260509233016 25 140 0.0 4.8 0.00 0.74 0.03 39 1009.2
20260509232016 26 175 0.0 6.4 0.00 0.74 0.03 39 1009.2
20260509231015 26 120 0.0 4.8 0.00 0.74 0.03 38 1009.2
20260509230016 26 209 0.0 4.8 0.00 0.74 0.03 38 1009.1
20260509225015 27 156 1.6 6.4 0.00 0.74 0.03 37 1009.1
20260509224015 28 194 1.6 6.4 0.00 0.74 0.03 36 1009.1
20260509223016 28 207 0.0 3.2 0.00 0.74 0.03 36 1009.2
20260509222015 28 168 1.6 11.3 0.00 0.74 0.03 37 1009.1
20260509221055 28 168 1.6 11.3 0.00 0.74 0.03 35 1009.1